When you browse on this site, cookies collect data to enhance your experience and personalize the content and advertising you see.
Visit our Privacy Policy to learn more. By continuing to use the site, you agree to this use of cookies and data.
  • Em Portugal
  • Lista de países
  • Para 7 dias
  • Temperatura da água
  • Mapas de satélite
  • Mapa do tempo
  • Widgets de tempo
  • user-avatar
    Iniciar Sessão

    Previsão horária em Ropotamo

    Hoje, 19 Fevereiro, Terça-feira

    Tempo Temperatura Precipitação Vento Pressão Humidade
    00:00 +8°C° 0 mm 1 m/s 765 mmHg 74%
    01:00 +8°C° 0 mm 1 m/s 765 mmHg 75%
    02:00 +8°C° 0 mm 1 m/s 765 mmHg 76%
    03:00 +8°C° 0 mm 1 m/s 765 mmHg 78%
    04:00 +7°C° 0 mm 2 m/s 764 mmHg 79%
    05:00 +6°C° 0 mm 2 m/s 764 mmHg 80%
    06:00 +7°C° 0 mm 2 m/s 764 mmHg 81%
    07:00 +7°C° 0 mm 2 m/s 764 mmHg 81%
    08:00 +7°C° 0 mm 2 m/s 765 mmHg 81%
    09:00 +9°C° 0 mm 2 m/s 765 mmHg 75%
    10:00 +10°C° 0 mm 3 m/s 765 mmHg 70%
    11:00 +12°C° 0 mm 3 m/s 765 mmHg 64%
    12:00 +12°C° 0 mm 3 m/s 764 mmHg 62%
    13:00 +13°C° 0 mm 3 m/s 764 mmHg 61%
    14:00 +13°C° 0 mm 4 m/s 764 mmHg 60%
    15:00 +13°C° 0 mm 4 m/s 763 mmHg 64%
    16:00 +12°C° 0 mm 4 m/s 763 mmHg 68%
    17:00 +11°C° 0 mm 4 m/s 763 mmHg 72%
    18:00 +10°C° 0 mm 4 m/s 763 mmHg 76%
    19:00 +8°C° 0 mm 4 m/s 763 mmHg 81%
    20:00 +7°C° 0 mm 4 m/s 763 mmHg 85%
    21:00 +7°C° 0 mm 4 m/s 763 mmHg 84%
    22:00 +8°C° 0 mm 3 m/s 763 mmHg 84%
    23:00 +8°C° 0 mm 3 m/s 762 mmHg 84%

    Amanhã, 20 Fevereiro, Quarta-feira

    Tempo Temperatura Precipitação Vento Pressão Humidade
    00:00 +8°C° 0 mm 3 m/s 762 mmHg 83%
    01:00 +7°C° 0 mm 2 m/s 762 mmHg 82%
    02:00 +7°C° 0 mm 2 m/s 762 mmHg 82%
    03:00 +7°C° 0 mm 2 m/s 762 mmHg 80%
    04:00 +7°C° 0 mm 2 m/s 761 mmHg 78%
    05:00 +7°C° 0 mm 2 m/s 761 mmHg 77%
    06:00 +7°C° 0 mm 2 m/s 761 mmHg 74%
    07:00 +7°C° 0 mm 2 m/s 761 mmHg 71%
    08:00 +7°C° 0 mm 2 m/s 761 mmHg 69%
    09:00 +9°C° 0 mm 2 m/s 761 mmHg 63%
    10:00 +12°C° 0 mm 2 m/s 761 mmHg 57%
    11:00 +14°C° 0 mm 2 m/s 761 mmHg 51%
    12:00 +15°C° 0 mm 2 m/s 761 mmHg 51%
    13:00 +16°C° 0 mm 2 m/s 761 mmHg 50%
    14:00 +16°C° 0 mm 2 m/s 760 mmHg 50%
    15:00 +16°C° 0 mm 2 m/s 760 mmHg 53%
    16:00 +16°C° 0 mm 1 m/s 760 mmHg 56%
    17:00 +15°C° 0 mm 1 m/s 760 mmHg 58%
    18:00 +14°C° 0 mm 2 m/s 760 mmHg 61%
    19:00 +13°C° 0 mm 2 m/s 760 mmHg 64%
    20:00 +12°C° 0 mm 2 m/s 761 mmHg 67%
    21:00 +10°C° 0 mm 3 m/s 761 mmHg 67%
    22:00 +10°C° 0 mm 3 m/s 761 mmHg 66%
    23:00 +8°C° 0 mm 4 m/s 762 mmHg 66%

    Depois de amanhã, 21 Fevereiro, Quinta-feira

    Tempo Temperatura Precipitação Vento Pressão Humidade
    00:00 +8°C° 0 mm 4 m/s 762 mmHg 68%
    01:00 +8°C° 0 mm 5 m/s 762 mmHg 69%
    02:00 +7°C° 0 mm 5 m/s 762 mmHg 71%
    03:00 +7°C° 0 mm 5 m/s 763 mmHg 72%
    04:00 +7°C° 0 mm 5 m/s 763 mmHg 72%
    05:00 +7°C° 0 mm 5 m/s 763 mmHg 73%
    06:00 +6°C° 0 mm 4 m/s 763 mmHg 73%
    07:00 +6°C° 0 mm 4 m/s 764 mmHg 74%
    08:00 +6°C° 0 mm 4 m/s 764 mmHg 75%
    09:00 +8°C° 0 mm 3 m/s 765 mmHg 71%
    10:00 +9°C° 0 mm 3 m/s 765 mmHg 68%
    11:00 +10°C° 0 mm 3 m/s 765 mmHg 64%
    12:00 +12°C° 0 mm 2 m/s 765 mmHg 62%
    13:00 +12°C° 0 mm 2 m/s 765 mmHg 61%
    14:00 +13°C° 0 mm 2 m/s 764 mmHg 59%
    15:00 +12°C° 0 mm 2 m/s 764 mmHg 61%
    16:00 +12°C° 0 mm 2 m/s 764 mmHg 63%
    17:00 +12°C° 0 mm 2 m/s 764 mmHg 65%
    18:00 +10°C° 0 mm 2 m/s 764 mmHg 70%
    19:00 +9°C° 0 mm 2 m/s 764 mmHg 76%
    20:00 +8°C° 0 mm 3 m/s 765 mmHg 81%
    21:00 +8°C° 0 mm 3 m/s 765 mmHg 81%
    22:00 +8°C° 0 mm 3 m/s 764 mmHg 81%
    23:00 +7°C° 0 mm 3 m/s 764 mmHg 81%

    22 Fevereiro, Sexta-feira

    Tempo Temperatura Precipitação Vento Pressão Humidade
    00:00 +7°C° 0 mm 3 m/s 764 mmHg 81%
    01:00 +7°C° 0 mm 3 m/s 764 mmHg 81%
    02:00 +7°C° 0 mm 3 m/s 763 mmHg 80%
    03:00 +7°C° 0 mm 3 m/s 763 mmHg 80%
    04:00 +7°C° 0 mm 3 m/s 762 mmHg 80%
    05:00 +7°C° 0 mm 3 m/s 762 mmHg 80%
    06:00 +7°C° 0 mm 3 m/s 761 mmHg 79%
    07:00 +7°C° 0 mm 3 m/s 761 mmHg 77%
    08:00 +8°C° 0 mm 3 m/s 761 mmHg 76%
    09:00 +7°C° 0.2 mm 4 m/s 760 mmHg 73%
    10:00 +7°C° 0.2 mm 4 m/s 760 mmHg 71%
    11:00 +8°C° 0.2 mm 4 m/s 760 mmHg 69%
    12:00 +8°C° 0.3 mm 4 m/s 759 mmHg 69%
    13:00 +8°C° 0.3 mm 5 m/s 758 mmHg 69%
    14:00 +8°C° 0.3 mm 5 m/s 758 mmHg 70%
    15:00 +8°C° 0.3 mm 5 m/s 757 mmHg 72%
    16:00 +7°C° 0.3 mm 4 m/s 757 mmHg 75%
    17:00 +7°C° 0.3 mm 4 m/s 757 mmHg 77%
    18:00 +7°C° 0.2 mm 4 m/s 757 mmHg 79%
    19:00 +7°C° 0.2 mm 5 m/s 757 mmHg 82%
    20:00 +7°C° 0.2 mm 5 m/s 757 mmHg 84%
    21:00 +5°C° 0.5 mm 8 m/s 758 mmHg 84%
    22:00 +3°C° 0.5 mm 11 m/s 759 mmHg 85%
    23:00 +1°C° 0.5 mm 13 m/s 759 mmHg 86%

    23 Fevereiro, Sábado

    Tempo Temperatura Precipitação Vento Pressão Humidade
    00:00 0°C° 0.5 mm 13 m/s 760 mmHg 85%
    01:00 -1°C° 0.5 mm 13 m/s 760 mmHg 85%
    02:00 -1°C° 0.5 mm 13 m/s 761 mmHg 85%
    03:00 -4°C° 0.5 mm 13 m/s 762 mmHg 86%
    04:00 -5°C° 0.5 mm 13 m/s 763 mmHg 87%
    05:00 -6°C° 0.5 mm 13 m/s 763 mmHg 88%
    06:00 -7°C° 0.3 mm 13 m/s 764 mmHg 85%
    07:00 -7°C° 0.3 mm 13 m/s 765 mmHg 83%
    08:00 -9°C° 0.3 mm 13 m/s 766 mmHg 80%
    09:00 -9°C° 0.1 mm 13 m/s 767 mmHg 78%
    10:00 -7°C° 0.1 mm 12 m/s 768 mmHg 76%
    11:00 -7°C° 0.1 mm 12 m/s 768 mmHg 74%
    12:00 -7°C° 0.1 mm 12 m/s 768 mmHg 73%
    13:00 -6°C° 0.1 mm 11 m/s 768 mmHg 73%
    14:00 -6°C° 0.1 mm 11 m/s 768 mmHg 72%
    15:00 -6°C° 0.1 mm 11 m/s 768 mmHg 70%
    16:00 -6°C° 0.1 mm 11 m/s 768 mmHg 69%
    17:00 -5°C° 0.1 mm 10 m/s 768 mmHg 67%
    18:00 -5°C° 0.1 mm 10 m/s 768 mmHg 67%
    19:00 -5°C° 0.1 mm 10 m/s 768 mmHg 66%
    20:00 -5°C° 0.1 mm 10 m/s 769 mmHg 65%
    21:00 -7°C° 0.1 mm 10 m/s 768 mmHg 66%
    22:00 -7°C° 0.1 mm 10 m/s 768 mmHg 66%
    23:00 -7°C° 0.1 mm 10 m/s 768 mmHg 66%

    24 Fevereiro, Domingo

    Tempo Temperatura Precipitação Vento Pressão Humidade
    00:00 -7°C° 0.1 mm 10 m/s 768 mmHg 67%
    01:00 -7°C° 0.1 mm 10 m/s 768 mmHg 68%
    02:00 -7°C° 0.1 mm 10 m/s 767 mmHg 69%
    03:00 -7°C° 0.1 mm 10 m/s 767 mmHg 70%
    04:00 -7°C° 0.1 mm 10 m/s 767 mmHg 71%
    05:00 -7°C° 0.1 mm 10 m/s 767 mmHg 72%
    06:00 -7°C° 0.1 mm 11 m/s 767 mmHg 72%
    07:00 -7°C° 0.1 mm 11 m/s 767 mmHg 72%
    08:00 -7°C° 0.1 mm 11 m/s 767 mmHg 72%
    09:00 -7°C° 0.1 mm 11 m/s 767 mmHg 71%
    10:00 -6°C° 0.1 mm 11 m/s 767 mmHg 69%
    11:00 -6°C° 0.1 mm 11 m/s 767 mmHg 68%
    12:00 -4°C° 0.2 mm 11 m/s 766 mmHg 68%
    13:00 -4°C° 0.2 mm 11 m/s 766 mmHg 68%
    14:00 -4°C° 0.2 mm 11 m/s 766 mmHg 68%
    15:00 -4°C° 0.2 mm 11 m/s 766 mmHg 69%
    16:00 -4°C° 0.2 mm 11 m/s 766 mmHg 70%
    17:00 -4°C° 0.2 mm 11 m/s 766 mmHg 70%
    18:00 -4°C° 0.2 mm 11 m/s 766 mmHg 72%
    19:00 -4°C° 0.2 mm 11 m/s 766 mmHg 73%
    20:00 -4°C° 0.2 mm 11 m/s 766 mmHg 75%
    21:00 -4°C° 0.2 mm 11 m/s 766 mmHg 76%
    22:00 -4°C° 0.2 mm 11 m/s 766 mmHg 77%
    23:00 -4°C° 0.2 mm 11 m/s 766 mmHg 78%
    Mostrar mais